カタログに戻る

TRANSAT DEB

運用中PO
NORAD 57001·DEBRIS·🇺🇸 United States

打ち上げ Oct 28, 1977 から Vandenberg Space Force Base

Loading…

次のパス (今後24時間)

TLE

最新Source: Space-Track

元期: Sep 14, 2026, 17:13 UTC

1 57001U 77106D   26257.71737996  .00000443  00000-0  66169-3 0  9997
2 57001  89.6441  68.8289 0026312 109.7905 250.6087 13.51683143304542

AllMySatでTRANSAT DEBをリアルタイム追跡

Download on the App Store